Hourly Weather Roundup
Issued by NWS Central Illinois

Home | Current Version | Previous Version | Text Only | Print | Product List | Glossary On
Versions: 1 2 3 4 5 6 7 8 9 10 11 12 13 14 15 16 17 18 19 20 21 22 23 24 25 26 27 28 29 30 31 32 33 34 35 36 37 38 39 40 41 42 43 44 45 46 47 48 49 50
000
NZUS43 KILX 201510
HWRILX

AREA WEATHER ROUNDUP
NATIONAL WEATHER SERVICE, LINCOLN IL
1000 AM CDT MON APR 20 2015


CITY           SKY/WX    TMP DP  RH WIND       PRES   REMARKS
BLOOMINGTON    CLOUDY    48  42  80 W22G31    29.50R
CHAMPAIGN      CLOUDY    49  43  80 W28G35    29.51R
DECATUR        CLOUDY    50  41  71 W22G29    29.55R
EFFINGHAM      CLOUDY    53  41  64 W15       29.60R
FLORA          CLOUDY    53  42  66 W20G30    29.61R
GALESBURG      PTSUNNY   47  37  67 W28G37    29.54R
JACKSONVILLE   CLOUDY    51  40  64 W22G33    29.61R
LACON          CLOUDY    46  38  74 W17G28    29.48R
LAWRENCEVILLE  CLOUDY    54  44  69 W18G25    29.60R
LITCHFIELD     PTSUNNY   50  40  67 W22G30    29.63R
$$


CITY           SKY/WX    TMP DP  RH WIND       PRES   REMARKS
LINCOLN        CLOUDY    49  41  72 W13G22    29.53R
MACOMB         PTSUNNY   49  39  68 NW26G38   29.60R
MATTOON        CLOUDY    51  43  74 W21G28    29.54R
MT CARMEL AP   CLOUDY    55  43  62 W18G24    29.61R
OLNEY-NOBLE AP PTSUNNY   54  43  66 W20G25    29.60S
PARIS          CLOUDY    50  46  86 W20G25    29.54R
PEORIA         CLOUDY    48  38  68 W16G31    29.52R
PONTIAC        CLOUDY    49  44  83 W29G37    29.45R
RANTOUL        CLOUDY    49  45  85 W24G30    29.49R
ROBINSON       CLOUDY    52  44  73 W16       29.59R
SPRINGFIELD    CLOUDY    50  38  63 W25G32    29.58R
TAYLORVILLE    CLOUDY    48  39  71 W17G32    29.58R
$$

...REGIONAL REPORTS...


CITY           SKY/WX    TMP DP  RH WIND       PRES   REMARKS
CHICAGO O`HARE CLOUDY    47  43  86 W23G33    29.30R
KANKAKEE       CLOUDY    48  44  84 W22G30    29.41R
MOLINE         MOSUNNY   49  35  58 NW25G33   29.50R
MOUNT VERNON   CLOUDY    54  39  58 W8G21     29.64R
PITTSFIELD     CLOUDY    50  38  62 W17G28    29.65R
QUINCY         CLOUDY    49  36  61 NW17G28   29.64R
ROCKFORD       CLOUDY    45  38  76 NW21G26   29.39R
$$


CITY           SKY/WX    TMP DP  RH WIND       PRES   REMARKS
BURLINGTON     MOSUNNY   49  36  61 NW23G35   29.58R
CEDAR RAPIDS   PTSUNNY   44  36  73 NW29G39   29.53R WCI  34
DES MOINES     CLOUDY    45  35  68 NW26G35   29.68R
KIRKSVILLE     CLOUDY    48  37  65 W20G28    29.70R
OTTUMWA        PTSUNNY   46  35  65 NW18G31   29.63R
ST LOUIS       PTSUNNY   53  38  56 NW21G33   29.67R
$$


CITY           SKY/WX    TMP DP  RH WIND       PRES   REMARKS
TERRE HAUTE    CLOUDY    51  43  74 W15       29.55R
EVANSVILLE     CLOUDY    53  46  77 W9        29.65R
INDIANAPOLIS   LGT RAIN  50  47  89 W23G30    29.49R FOG
LAFAYETTE      CLOUDY    49  44  83 W17G28    29.45R
MADISON        LGT RAIN  40  36  86 NW15G24   29.33R WCI  32
MILWAUKEE      CLOUDY    49  43  80 W22       29.24R
$$




USA.gov is the U.S. government's official web portal to all federal, state and local government web resources and services.